#timestamp,LO_Frequency,Hit,StdDev 
1571166015.5,286046999.9,N
1571166035.3,286046999.9,N
1571166055.1,286047000.6,N
1571166075.9,286047002.4,N
1571166095.7,286046999.7,N
1571166115.6,286046999.9,N
1571166135.4,286047000.7,N
1571166155.2,286047001.0,N
1571166175.1,286047004.3,Y
1571166176.0,286047004.3,P
1571166195.8,286047004.2,N
1571166215.7,286047003.3,N
1571166235.5,286047006.0,Y
1571166255.3,286047002.3,P
1571166275.2,286047002.0,P
1571166295.0,286047004.0,P
1571166295.9,286047004.0,Y
1571166315.8,286047001.0,P
1571166335.6,286046999.4,N
1571166355.4,286046998.8,N
1571166375.3,286046999.0,N
1571166395.1,286046998.5,N
1571166415.8,286046998.4,N
1571166435.7,286046998.7,N
1571166455.5,286047000.5,N
1571166475.4,286047002.8,N
1571166495.2,286047000.0,N
1571166515.0,286047000.2,N
1571166515.9,286047000.2,N
1571166535.8,286047002.0,N
1571166555.6,286047002.7,N
1571166575.5,286047002.7,N
1571166595.3,286047000.7,N
1571166615.1,286047002.6,N
1571166635.9,286047002.0,N
1571166655.7,286047002.3,N
1571166675.5,286047002.6,N
1571166695.4,286047000.2,N
1571166715.2,286047000.1,N
1571166735.1,286046998.1,N
1571166736.0,286046998.1,N
1571166755.8,286047001.3,N
1571166775.6,286047003.6,N
1571166795.5,286047003.1,N
1571166815.3,286047003.1,N
1571166835.1,286047005.2,N
1571166855.9,286047003.4,N
1571166875.7,286047005.7,N
1571166895.6,286047007.4,Y
1571166915.4,286047003.1,P
1571166935.2,286047003.5,P
1571166955.1,286047002.9,N
1571166956.0,286047002.9,Y
1571166975.8,286047001.8,P
1571166995.7,286047000.4,N
1571167015.5,286047002.2,N
1571167035.3,286047001.4,N
1571167055.2,286047002.3,N
1571167075.0,286047001.5,N
1571167075.9,286047001.5,N
1571167095.8,286047004.2,Y
1571167115.6,286047002.8,P
1571167135.4,286047002.0,P
1571167155.3,286047004.0,P
1571167175.1,286047003.2,Y
1571167195.9,286047000.4,P
1571167215.7,286047002.8,N
1571167235.5,286047000.0,N
1571167255.4,286047002.5,N
1571167275.2,286047002.7,N
1571167295.1,286047002.2,N
1571167296.0,286047002.2,N
1571167315.8,286047001.6,N
1571167335.6,286047002.3,N
1571167355.5,286047001.9,N
1571167375.3,286047002.4,N
1571167395.1,286047000.9,N
1571167415.9,286046999.4,N
1571167435.7,286046999.6,N
1571167455.6,286046997.3,N
1571167475.4,286046997.5,N
1571167495.2,286046998.0,N
1571167515.1,286046999.6,N
1571167516.0,286046999.6,N
1571167535.8,286046998.1,N
1571167555.6,286046998.9,N
1571167575.5,286046999.2,N
1571167595.3,286046995.3,N
1571167615.2,286046999.6,N
1571167635.9,286046996.9,N
1571167655.7,286046998.9,N
1571167675.6,286046996.6,N
1571167695.4,286046999.2,N
1571167715.2,286046998.9,N
1571167735.1,286046999.1,N
1571167736.0,286046999.1,N
1571167755.8,286046997.2,N
1571167775.7,286046995.5,N
1571167795.5,286046997.5,N
1571167815.3,286046995.8,N
1571167835.2,286046995.5,N
1571167855.0,286046996.4,N
1571167855.9,286046996.4,N
1571167875.8,286046993.5,Y
1571167895.6,286046993.6,P
1571167915.4,286046994.7,N
1571167935.3,286046994.6,N
1571167955.1,286046991.9,Y
1571167975.9,286046996.6,P
1571167995.7,286046997.3,P
1571168015.5,286046996.9,P
1571168035.4,286046997.2,Y
1571168055.2,286047000.5,P
1571168075.1,286047001.2,N
1571168076.0,286047001.2,N
1571168095.8,286046999.7,N
1571168115.6,286047001.1,N
1571168135.5,286046999.6,N
1571168155.3,286046998.1,N
1571168175.1,286046999.9,N
1571168195.9,286047000.8,N
1571168215.7,286046998.9,N
1571168235.6,286046997.2,N
1571168255.4,286046994.9,Y
1571168275.2,286046995.0,P
1571168295.1,286046994.9,N
1571168296.0,286046994.9,N
1571168315.8,286046996.2,N
1571168335.7,286046994.9,N
1571168355.5,286046995.2,N
1571168375.3,286046993.4,Y
1571168395.2,286046999.1,P
1571168415.0,286046996.9,N
1571168415.9,286046996.9,N
1571168435.8,286046999.1,N
1571168455.6,286047001.0,N
1571168475.4,286046998.4,N
1571168495.3,286046996.5,N
1571168515.1,286046996.8,N
1571168535.8,286046995.7,N
1571168555.7,286046996.1,N
1571168575.5,286046995.9,N
1571168595.4,286046993.7,Y
1571168615.2,286046997.2,P
1571168635.0,286046997.8,P
1571168635.9,286046997.8,P
1571168655.8,286046997.4,Y
1571168675.6,286046997.3,P
1571168695.5,286046997.3,P
1571168715.3,286046997.5,P
1571168735.1,286046996.2,Y
1571168755.9,286046997.5,P
1571168775.7,286046995.1,P
1571168795.5,286046995.8,P
1571168815.4,286046993.9,Y
1571168835.2,286046997.6,P
1571168855.1,286046997.9,P
1571168856.0,286046997.9,P
1571168875.8,286046997.8,Y
1571168895.6,286046999.7,P
1571168915.5,286047000.2,N
1571168935.3,286047002.8,N
1571168955.2,286047001.0,N
1571168975.9,286047002.7,N
1571168995.7,286047002.8,N
1571169015.6,286047000.8,N
1571169035.4,286046998.0,N
1571169055.2,286046996.2,N
1571169075.1,286046995.1,N
1571169076.0,286046995.1,N
1571169095.8,286046996.1,N
1571169115.7,286046997.1,N
1571169135.5,286046999.5,N
1571169155.3,286046995.0,N
1571169175.2,286046995.9,N
1571169195.0,286046996.0,N
1571169195.9,286046996.0,N
1571169215.8,286046996.1,N
1571169235.6,286046995.4,N
1571169255.4,286046993.8,N
1571169275.3,286046991.8,N
1571169295.1,286046991.9,N
1571169315.8,286046994.5,N
1571169335.7,286046992.5,N
1571169355.5,286046990.5,N
1571169375.4,286046990.4,N
1571169395.2,286046990.5,N
1571169415.0,286046992.6,N
1571169415.9,286046992.6,N
1571169435.8,286046992.5,N
1571169455.6,286046990.6,N
1571169475.4,286046992.2,N
1571169495.3,286046993.2,N
1571169515.1,286046990.2,N
1571169535.9,286046990.1,Y
1571169555.7,286046996.9,P
1571169575.5,286046994.9,P
1571169595.4,286046995.6,P
